Temp
11 11 11 10 10 10 10 10 10 10 10 11 11 10 10 10 10 10 10 11 11 10 10 10 10 10 10 10 10 10 11 11 11 11 11 11 11 11 11 11 11 11
10 11 11 10 10 10 10 10 10 10 10 10 10 11 10 10 10 10 10 10 11 11 10 10 10 10 10 10 10 10 10 11 11 11 11 11 11 11 11 11 11 11
10 10 11 11 10 10 10 10 10 10 10 10 10 10 11 10 10 10 10 10 10 11 11 11 11 11 11 11 11 11 11 10 11 11 11 11 11 11 11 11 11 11
11 11 11 10 10 10 10 10 10 10 10 10 10 10 10 11 10 10 10 10 10 10 11 11 11 11 11 11 11 11 11 11 11 11 11 11 11 11 11 11 11 11
11 11 11 10 10 10 10 10 10 10 10 10 10 10 10 10 10 10 10 10 10 10 11 11 11 11 11 11 11 11 11 11 11 11 11 11 11 11 11 11 11 11
11 11 11 11 11 10 10 10 10 10 10 10 10 10 10 10 10 10 10 10 10 10 11 11 11 11 11 11 11 11 11 11 11 11 11 11 11 11 11 11 11 11
11 11 11 11 11 11 11 10 10 10 10 10 10 10 10 10 10 10 10 10 11 11 11 11 11 11 11 11 11 11 11 11 11 11 11 11 11 11 11 11 11 11
11 11 11 11 11 11 11 11 10 10 10 10 10 10 10 10 10 10 10 10 10 11 11 11 11 11 11 11 11 11 11 11 11 11 11 11 11 11 11 11 11 11
11 11 11 11 11 11 11 11 11 10 10 10 10 10 10 10 10 10 10 10 10 10 10 11 11 11 11 11 11 11 11 11 11 11 11 11 11 11 11 11 11 11
11 11 11 11 11 11 11 11 11 11 10 10 10 10 10 10 10 10 10 10 10 10 10 10 11 11 11 11 11 11 11 11 11 11 11 11 11 11 11 11 11 11
11 11 11 11 11 11 11 11 11 11 11 10 10 10 10 11 10 10 10 10 10 10 10 10 10 10 10 10 10 10 10 11 11 11 11 11 11 11 11 11 11 11
10 11 11 11 11 11 11 11 11 10 10 11 10 10 10 10 11 11 10 11 11 10 10 10 10 10 10 10 10 10 10 10 11 11 11 11 11 11 11 11 11 11
10 10 10 10 10 10 10 11 11 11 10 10 10 10 10 10 10 11 11 11 11 11 10 10 10 10 10 10 10 10 10 10 10 10 10 10 10 10 11 11 11 11
10 10 10 10 10 10 10 10 11 11 11 11 11 11 11 10 10 11 11 11 11 11 11 10 10 10 10 10 10 10 10 10 10 10 10 10 10 10 10 10 11 11
10 10 10 10 10 10 10 10 11 11 11 11 11 11 11 11 11 11 11 11 11 11 11 11 11 11 10 10 10 10 10 10 10 10 10 10 10 10 10 10 10 11
10 10 10 10 10 10 10 10 10 10 11 11 11 11 11 11 11 11 11 11 11 11 11 11 11 11 11 11 11 11 11 11 11 11 10 10 10 11 11 10 10 11
10 10 10 10 10 11 11 11 10 10 10 11 11 11 10 10 10 10 11 11 12 12 11 11 11 11 11 11 11 11 11 11 11 11 11 11 11 11 11 11 11 11
10 10 10 10 10 11 11 11 11 11 10 10 11 11 11 10 10 10 10 11 12 12 12 12 11 11 11 11 11 11 11 11 11 11 11 11 11 11 11 11 11 11
9 10 10 10 10 10 11 11 11 11 11 11 11 11 11 11 10 10 10 10 11 12 12 12 12 12 11 11 11 11 11 11 11 11 11 11 11 12 12 12 12 12
9 9 10 10 10 10 10 11 11 11 11 12 11 11 11 11 11 11 11 10 10 11 12 12 12 12 12 12 12 11 11 11 11 11 11 11 11 11 12 12 12 12
9 9 10 10 10 10 10 10 11 11 11 11 11 11 11 11 11 11 11 10 10 10 11 11 12 12 12 12 12 12 12 12 11 11 11 11 11 11 11 11 12 12
10 10 10 10 10 10 10 10 10 10 10 10 10 11 11 11 11 11 11 11 11 10 10 11 11 11 12 12 12 12 12 12 12 12 11 11 11 11 11 11 11 12
10 10 10 11 10 10 10 10 10 10 10 10 10 10 11 11 11 12 12 12 11 11 11 11 11 11 11 11 11 11 11 12 12 12 12 11 11 11 11 11 11 12
10 10 10 10 10 10 10 10 10 10 10 10 10 10 10 11 11 11 11 11 11 11 11 11 11 11 11 10 11 11 11 11 11 11 11 11 11 11 11 11 11 11
9 9 10 10 10 10 10 10 10 10 10 11 10 10 10 10 10 11 11 11 11 11 11 11 11 11 11 10 10 10 10 11 11 11 11 11 11 11 11 11 11 11
10 9 9 9 9 9 10 10 10 10 10 10 10 10 10 10 10 11 11 11 11 11 11 11 11 11 11 11 10 10 10 10 10 11 11 11 11 11 11 11 11 11
Height
3234 3235 3237 3238 3239 3240 3242 3243 3244 3245 3245 3247 3247 3249 3250 3250 3251 3252 3252 3253 3254 3254 3254 3255 3255 3256 3256 3257 3258 3258 3259 3260 3261 3261 3262 3263 3264 3264 3265 3265 3266 3266
3234 3235 3236 3238 3239 3240 3241 3242 3243 3244 3245 3246 3247 3249 3249 3250 3252 3252 3253 3253 3254 3255 3255 3255 3255 3256 3257 3257 3258 3258 3259 3259 3260 3261 3262 3263 3263 3264 3264 3265 3265 3266
3233 3234 3236 3237 3238 3240 3241 3242 3243 3244 3245 3246 3247 3248 3249 3250 3251 3252 3253 3253 3254 3255 3255 3255 3256 3256 3257 3257 3257 3258 3259 3259 3260 3260 3261 3262 3263 3264 3264 3265 3265 3265
3232 3233 3235 3237 3238 3239 3240 3241 3243 3244 3245 3246 3247 3248 3249 3250 3251 3252 3253 3253 3254 3255 3255 3256 3256 3256 3256 3257 3257 3258 3258 3259 3259 3260 3261 3261 3262 3263 3264 3264 3265 3265
3231 3232 3234 3235 3237 3238 3240 3241 3242 3243 3244 3245 3246 3247 3248 3249 3250 3251 3252 3253 3254 3254 3255 3256 3256 3256 3256 3257 3257 3258 3258 3258 3259 3260 3260 3261 3261 3262 3263 3263 3264 3264
3229 3231 3232 3234 3236 3237 3239 3240 3241 3243 3244 3245 3246 3247 3248 3249 3250 3251 3252 3253 3253 3254 3255 3255 3256 3256 3257 3257 3257 3257 3258 3258 3259 3259 3260 3260 3261 3261 3262 3263 3263 3264
3227 3229 3231 3233 3234 3236 3237 3239 3240 3241 3243 3244 3245 3246 3247 3248 3249 3250 3251 3252 3253 3253 3254 3255 3255 3256 3256 3257 3257 3257 3258 3258 3258 3259 3259 3260 3260 3261 3261 3262 3262 3263
3224 3226 3229 3231 3232 3234 3236 3238 3239 3240 3242 3243 3244 3245 3246 3247 3248 3249 3250 3251 3252 3253 3253 3254 3255 3255 3256 3257 3257 3257 3257 3258 3258 3258 3259 3259 3259 3260 3260 3261 3261 3262
3222 3224 3226 3228 3230 3232 3234 3236 3238 3239 3240 3241 3243 3244 3245 3246 3247 3248 3249 3250 3250 3251 3252 3253 3254 3255 3255 3256 3256 3257 3257 3257 3258 3258 3258 3258 3259 3259 3259 3260 3260 3261
3220 3222 3224 3226 3228 3230 3232 3234 3236 3237 3239 3240 3241 3242 3243 3244 3245 3246 3247 3248 3249 3250 3251 3252 3253 3254 3254 3255 3255 3256 3256 3256 3257 3257 3257 3258 3258 3258 3258 3258 3259 3259
3218 3220 3222 3224 3226 3228 3230 3231 3233 3235 3237 3238 3239 3240 3241 3242 3243 3245 3245 3246 3247 3248 3249 3250 3251 3252 3253 3254 3254 3255 3255 3255 3256 3256 3256 3257 3257 3257 3257 3257 3258 3258
3216 3219 3221 3223 3224 3226 3227 3228 3229 3231 3233 3235 3237 3238 3239 3240 3241 3242 3244 3245 3246 3247 3247 3248 3249 3250 3251 3252 3253 3254 3254 3255 3255 3255 3256 3256 3256 3256 3256 3256 3256 3256
3215 3217 3219 3221 3223 3224 3225 3226 3226 3227 3229 3231 3233 3236 3237 3238 3239 3240 3241 3243 3244 3245 3246 3247 3247 3248 3249 3250 3251 3252 3253 3254 3254 3254 3255 3255 3255 3255 3255 3255 3255 3255
3213 3215 3217 3219 3221 3222 3224 3224 3225 3226 3226 3227 3229 3232 3234 3236 3237 3238 3239 3241 3242 3243 3244 3245 3245 3246 3247 3248 3249 3250 3251 3252 3253 3253 3253 3254 3254 3254 3254 3254 3254 3254
3210 3212 3214 3217 3219 3221 3223 3224 3225 3225 3226 3226 3227 3228 3231 3233 3235 3236 3237 3238 3240 3241 3242 3242 3243 3244 3245 3246 3247 3248 3249 3250 3251 3251 3252 3252 3252 3252 3252 3252 3253 3253
3209 3211 3212 3215 3217 3219 3221 3222 3223 3224 3225 3226 3226 3226 3228 3231 3233 3234 3234 3235 3237 3238 3239 3240 3241 3242 3243 3244 3245 3246 3247 3247 3248 3249 3249 3250 3250 3250 3251 3251 3251 3251
3207 3209 3211 3212 3214 3216 3217 3218 3220 3222 3225 3226 3226 3225 3226 3229 3232 3234 3234 3233 3234 3235 3237 3238 3238 3239 3240 3242 3243 3243 3244 3245 3245 3246 3247 3247 3247 3248 3248 3249 3249 3249
3206 3208 3209 3210 3211 3213 3214 3215 3217 3220 3222 3224 3225 3225 3225 3226 3230 3232 3233 3233 3232 3232 3233 3234 3235 3237 3238 3239 3240 3241 3242 3242 3243 3243 3243 3244 3245 3245 3246 3246 3246 3247
3204 3205 3207 3208 3209 3211 3212 3213 3215 3217 3219 3221 3222 3222 3222 3224 3226 3229 3231 3232 3231 3230 3230 3230 3232 3233 3234 3235 3236 3237 3239 3239 3240 3240 3241 3241 3242 3243 3243 3244 3244 3245
3200 3202 3204 3206 3208 3209 3210 3211 3213 3214 3216 3217 3218 3219 3220 3221 3223 3225 3227 3228 3229 3229 3228 3228 3228 3229 3231 3232 3233 3234 3235 3236 3236 3237 3237 3238 3239 3239 3240 3241 3242 3242
3198 3199 3201 3204 3205 3207 3208 3210 3211 3212 3213 3214 3215 3215 3217 3218 3220 3222 3224 3225 3225 3226 3226 3226 3227 3227 3228 3229 3230 3231 3232 3233 3233 3233 3234 3234 3235 3236 3237 3237 3238 3239
3195 3197 3198 3201 3203 3204 3205 3207 3208 3209 3210 3211 3212 3212 3213 3215 3217 3219 3221 3222 3222 3222 3223 3223 3224 3224 3225 3225 3226 3227 3228 3229 3230 3230 3231 3231 3232 3233 3233 3234 3234 3235
3193 3194 3195 3198 3200 3201 3202 3203 3204 3206 3207 3208 3209 3210 3211 3212 3214 3216 3218 3218 3218 3218 3219 3220 3221 3222 3222 3222 3223 3224 3224 3225 3226 3227 3227 3228 3229 3230 3230 3230 3231 3231
3191 3192 3192 3194 3196 3198 3199 3199 3201 3202 3203 3204 3205 3207 3208 3209 3211 3212 3213 3214 3214 3214 3215 3216 3217 3219 3219 3220 3220 3221 3221 3222 3223 3223 3224 3224 3225 3226 3226 3227 3227 3227
3190 3190 3191 3191 3193 3194 3195 3196 3197 3199 3201 3202 3203 3204 3204 3205 3207 3208 3209 3210 3211 3211 3211 3212 3213 3215 3216 3217 3217 3218 3218 3219 3219 3220 3220 3221 3221 3222 3222 3222 3222 3223
3189 3190 3190 3190 3191 3191 3192 3193 3193 3195 3198 3200 3202 3202 3202 3202 3203 3204 3205 3206 3206 3207 3208 3208 3209 3211 3213 3213 3214 3215 3216 3216 3216 3217 3217 3218 3218 3218 3219 3219 3218 3219
Wind_Speed
11 11 10 9 8 8 8 9 8 8 8 8 7 7 7 6 6 6 5 4 4 3 4 4 4 4 4 4 6 7 9 10 11 11 12 12 12 11 11 10 9 8
12 12 11 10 9 8 8 8 7 7 7 7 7 7 7 6 6 6 5 4 4 3 3 3 4 4 4 4 5 5 7 9 11 11 11 11 11 12 12 11 10 10
12 12 12 11 10 9 9 9 8 7 7 7 7 7 7 6 6 6 5 5 5 3 3 3 3 3 4 4 4 5 5 7 9 11 11 11 12 12 12 11 11 11
11 11 12 12 11 10 10 10 9 8 7 6 6 6 6 6 6 6 5 5 4 4 3 3 3 3 4 4 4 4 5 5 7 10 10 11 12 12 12 12 12 12
10 11 11 12 12 11 11 10 10 9 7 6 5 5 5 5 5 5 5 5 5 4 4 4 4 4 3 4 4 4 5 5 6 8 10 10 11 12 12 12 12 12
11 11 11 12 13 13 12 11 11 10 9 7 7 6 5 4 4 5 5 5 6 5 5 4 4 4 4 4 4 4 5 5 5 7 8 9 10 12 11 11 12 11
13 12 11 11 13 13 14 13 12 12 10 9 9 8 7 5 5 5 5 5 6 6 6 6 5 5 5 5 5 5 5 5 5 6 7 8 10 11 11 11 11 11
15 14 12 11 12 13 14 14 14 13 12 11 10 9 9 7 6 6 6 5 6 6 7 7 7 7 6 6 5 5 5 6 6 6 7 8 9 10 11 11 11 11
17 16 14 13 12 12 13 14 14 14 13 12 12 11 11 10 8 8 8 7 7 7 7 7 7 8 8 7 6 6 6 6 6 6 6 7 8 9 11 11 11 11
17 17 16 15 13 12 11 11 12 13 14 13 13 12 12 11 10 10 10 9 8 8 7 7 7 8 9 9 8 8 7 7 7 7 6 6 7 8 10 11 11 11
17 17 17 16 15 14 13 12 11 12 13 13 14 14 14 13 12 12 12 11 10 9 9 8 8 8 9 10 10 9 9 9 8 8 7 7 7 7 8 9 10 11
17 17 16 16 16 16 16 15 14 13 12 12 13 14 15 16 14 13 13 12 11 11 11 10 9 9 10 10 11 11 11 10 10 10 9 8 8 8 8 8 9 10
19 17 17 17 18 18 17 17 16 15 15 14 14 14 15 17 17 16 14 13 12 12 12 12 12 12 11 11 12 11 11 11 11 11 10 10 9 9 9 9 9 9
21 21 20 20 19 19 19 19 17 16 16 16 15 14 14 16 18 18 17 15 14 13 13 13 13 13 13 13 13 12 12 11 11 12 12 11 11 11 11 10 10 10
24 24 23 22 22 21 21 20 18 18 18 17 16 15 15 16 17 18 18 16 15 15 15 14 14 14 14 14 13 13 12 12 11 12 12 13 13 12 12 12 11 11
23 23 23 23 23 23 22 21 20 20 19 19 19 18 17 17 18 18 19 17 15 15 16 16 16 15 15 14 14 14 13 13 12 12 12 13 13 14 14 14 14 13
20 21 22 22 24 24 24 24 22 21 21 21 21 18 17 19 19 19 19 19 16 15 15 16 17 17 16 15 15 15 15 15 14 13 13 13 13 14 13 13 14 14
18 19 20 22 23 24 25 26 24 23 22 22 23 21 18 19 21 21 22 21 20 17 16 16 17 18 18 18 17 17 17 17 17 16 15 14 14 14 14 13 14 14
19 19 19 20 21 23 25 25 24 24 24 24 26 25 22 21 22 23 24 24 23 21 19 18 18 18 20 21 20 20 20 20 20 21 20 19 17 16 15 14 14 14
19 20 20 20 20 21 22 23 23 24 25 27 27 25 22 22 24 26 26 26 25 24 22 21 20 20 20 21 22 22 21 22 23 23 24 24 22 21 19 17 17 16
18 20 21 21 21 21 21 22 23 24 26 27 27 25 22 22 24 27 28 29 29 27 25 23 23 21 20 19 20 21 22 23 24 24 25 26 25 25 24 22 21 20
17 18 19 19 20 21 22 23 24 25 26 26 26 26 25 23 23 24 27 29 30 30 28 26 24 24 23 21 21 20 21 22 23 25 26 27 27 26 26 26 25 24
16 17 18 19 19 20 21 22 24 25 25 25 26 27 28 27 25 25 26 28 29 31 31 30 27 26 26 26 25 24 24 24 24 24 25 27 27 27 26 27 27 26
14 15 17 18 18 19 21 23 24 24 23 23 25 27 28 28 26 26 27 28 29 31 33 33 31 29 29 29 29 29 29 28 28 27 27 27 27 27 27 27 27 27
8 10 12 14 15 17 18 21 22 22 22 23 24 26 27 26 25 25 25 26 28 29 32 33 33 32 32 32 31 30 30 30 31 31 30 29 29 28 28 28 27 27
7 6 7 8 9 11 13 16 18 19 21 23 25 25 26 25 25 24 24 24 26 26 28 32 33 34 34 34 32 31 31 31 31 32 31 30 30 30 30 29 29 29
Wind_Direction
218 219 216 211 208 204 194 187 185 181 175 171 169 165 170 178 181 188 188 181 186 192 194 189 178 181 186 186 189 191 199 203 201 202 201 197 198 195 192 191 190 187
221 221 219 217 216 213 204 198 197 193 188 184 182 175 174 178 182 188 189 186 195 206 216 211 195 192 193 196 203 199 199 204 203 204 206 206 203 199 198 197 194 194
222 222 221 219 219 220 214 208 208 208 202 196 192 187 184 182 183 189 191 192 201 213 230 237 225 214 208 207 216 215 208 206 204 205 208 210 207 204 203 201 200 201
222 223 222 220 219 222 220 216 219 221 218 212 204 197 194 192 189 191 196 201 208 215 225 240 243 237 228 219 220 223 223 218 206 204 209 211 209 208 208 206 207 209
222 223 222 221 219 220 222 221 224 228 228 227 223 217 212 210 207 205 205 209 217 226 226 231 241 246 242 229 226 226 223 222 211 205 208 213 212 211 212 209 210 213
216 221 223 223 221 219 221 222 225 229 231 231 231 234 232 226 228 225 219 217 221 230 236 234 237 242 242 235 234 235 228 224 221 212 209 213 213 214 216 214 214 215
210 215 219 224 224 222 220 221 225 228 233 235 235 238 239 233 235 240 238 233 228 229 237 242 244 244 243 240 237 237 235 231 228 222 219 218 216 217 220 219 220 220
205 210 214 218 224 225 222 222 226 230 233 236 237 240 243 239 236 240 245 246 240 235 236 242 249 252 251 248 243 240 234 231 230 231 231 229 223 221 223 225 227 228
203 206 210 214 218 223 225 225 227 231 234 237 240 241 244 245 243 241 241 242 245 246 243 241 244 251 256 256 252 248 240 236 236 237 238 236 233 230 228 229 230 232
208 205 207 212 214 215 221 225 227 231 234 238 242 243 243 244 245 245 243 241 243 247 247 246 243 246 252 255 254 251 248 246 243 243 245 243 242 241 237 234 233 235
213 212 211 210 213 213 212 216 223 231 235 236 240 245 248 247 245 245 247 245 244 246 248 248 245 244 245 249 251 251 251 252 249 246 246 247 248 250 247 242 239 238
214 218 218 212 214 217 213 211 212 218 228 234 237 242 248 251 249 247 248 248 246 245 246 248 248 246 244 246 249 250 250 252 253 252 250 249 250 251 253 252 248 244
216 218 219 215 215 218 218 216 213 212 218 225 229 234 242 251 255 252 249 249 248 247 246 246 248 250 248 248 251 253 254 254 256 259 259 258 257 255 256 255 251 248
220 220 221 219 219 220 222 223 220 216 217 221 222 223 227 237 250 256 254 249 246 246 246 244 245 249 251 252 254 256 258 259 260 262 263 263 262 262 262 260 256 253
218 221 222 222 222 224 227 228 227 226 226 225 222 220 220 223 233 246 253 253 246 243 243 244 243 245 249 253 257 260 261 262 261 261 263 263 263 264 265 265 263 260
217 220 223 223 224 226 229 231 232 234 235 235 230 225 226 230 231 235 243 248 248 243 241 242 243 243 245 248 253 258 261 263 262 260 260 262 263 263 263 265 266 265
220 223 224 225 226 227 230 232 233 235 238 242 244 238 233 238 243 243 241 241 243 240 238 239 242 243 243 243 245 250 254 259 262 261 259 259 261 263 263 263 264 265
224 227 228 229 229 229 231 232 232 235 237 242 251 251 244 244 247 249 248 246 245 241 235 234 237 240 243 242 241 243 247 252 256 259 258 256 256 259 262 263 263 263
229 233 236 237 234 232 232 231 233 237 240 242 247 246 243 247 252 251 250 250 251 249 243 234 229 229 234 239 239 239 241 245 249 253 257 259 258 257 259 262 265 267
238 242 245 245 242 239 237 236 236 236 237 238 238 237 239 248 255 253 249 248 250 253 253 248 240 231 228 232 236 238 238 241 243 246 250 255 258 260 262 263 265 267
247 248 249 249 249 249 247 244 241 238 237 236 236 236 240 247 251 251 248 245 245 248 252 255 255 252 245 238 236 237 240 242 244 245 247 249 252 257 260 263 265 266
248 249 250 249 249 250 249 246 244 244 244 243 239 236 237 241 246 251 253 250 247 247 248 250 253 257 258 254 249 246 245 245 246 248 249 251 252 254 257 260 262 263
243 247 250 250 247 245 245 245 244 245 246 246 243 239 238 239 242 247 253 254 251 249 249 248 248 250 253 255 256 256 254 252 251 250 250 251 253 254 256 259 262 264
239 242 247 249 246 241 240 241 241 243 245 244 243 241 241 242 243 244 249 253 253 252 249 248 248 249 250 252 254 257 260 260 259 258 255 253 253 253 253 255 259 263
233 237 242 248 248 244 242 241 240 242 245 246 245 244 243 244 246 247 250 254 256 256 253 250 249 249 250 251 252 254 258 261 262 262 261 258 257 256 254 253 254 256
229 228 231 239 245 248 249 248 247 247 247 244 244 245 245 246 248 250 254 257 261 261 257 254 252 251 252 252 252 254 256 258 259 261 263 263 262 259 256 254 253 252